ASIASTAR

Last updated on Thu Nov 21 2024 00:02:40 GMT+0000 (Coordinated Universal Time)

1 26107U 00016A 24324.69354892 -.00000333 00000+0 00000+0 0 9992 2 26107 7.7780 64.0366 0005600 186.2753 163.5540 1.00268088 90157
UTC large
Height (km)
Speed (km/s)
/
Latitude / Longitude
Inclination (degrees)
Orbital Period (minutes)
Azimuth
Elevation
Range (km)
Doppler Factor

Next 0 passes for location: London (51.5072 / 0.1276)

Sorry there are no passes over London.